Home   Weather   Paris   Past weeks

Flag for France Past Weather in Paris, Île-de-France, France — Yesterday and Last 2 Weeks

Now
32 °F

Sunny.


Feels Like: 26 °F
Forecast: 19 / 35 °F
Wind: 7 mph from East

Location: Villacoublay

Current Time: Jan 20, 2017 at 5:43:59 pm

Latest Report: Jan 20, 2017 at 5:00 pm


Visibility: 10 mi

Pressure: 30.36 "Hg

Humidity: 64%

Dew Point: 21 °F

Location of ParisLocation

Past Weather in Paris — Graph

°F

Paris Temperature Yesterday

Maximum temperature yesterday: 32 °F (at 3:30 pm)
Minimum temperature yesterday: 25 °F (at 4:00 am)
Average temperature yesterday: 28 °F

High & Low Weather Summary for the Past Weeks

 TemperatureHumidityPressure
High50 °F (Jan 11, 3:00 pm)100% (Jan 7, 3:30 pm)30.69 "Hg (Jan 7, 3:30 pm)
Low23 °F (Jan 6, 11:30 pm)51% (Jan 6, 3:00 pm)29.30 "Hg (Jan 12, 7:30 pm)
Average35 °F86%30.25 "Hg
* Reported Jan 5 4:00 pm — Jan 20 4:30 pm, Paris, Weather by CustomWeather, © 2017

Note: Actual official high and low records may vary slightly from our data, if they occured in-between our weather recording intervals... More about our weather records

Advertising

Paris Weather History for the Previous 24 Hours

Scroll right to see more
 ConditionsComfort  
Time TempWeatherWind HumidityBarometerVisibility
4:30 pm
Fri, Jan 20
32 °FPassing clouds.6 mph64%30.39 "HgN/A
4:00 pm32 °FPassing clouds.7 mph64%30.36 "HgN/A
3:30 pm32 °FPassing clouds.8 mph64%30.36 "HgN/A
3:00 pm32 °FPassing clouds.8 mph64%30.36 "HgN/A
2:30 pm32 °FPassing clouds.8 mph60%30.39 "HgN/A
2:00 pm32 °FPassing clouds.7 mph60%30.39 "HgN/A
1:30 pm32 °FPassing clouds.6 mph60%30.39 "HgN/A
1:00 pm32 °FSunny.9 mph60%30.39 "Hg10 mi
12:30 pm30 °FSunny.9 mph59%30.39 "Hg10 mi
12:00 pm30 °FPassing clouds.8 mph64%30.42 "HgN/A
11:30 am28 °FChilly.9 mph64%30.42 "HgN/A
11:00 am28 °FChilly.12 mph64%30.42 "HgN/A
10:30 am28 °FChilly.12 mph64%30.42 "HgN/A
10:00 am27 °FChilly.9 mph69%30.42 "HgN/A
9:30 am27 °FChilly.10 mph69%30.42 "HgN/A
9:00 am25 °FCold.7 mph74%30.42 "HgN/A
8:30 am25 °FCold.10 mph74%30.42 "HgN/A
8:00 am27 °FChilly.9 mph69%30.42 "HgN/A
7:30 am27 °FChilly.10 mph69%30.39 "HgN/A
7:00 am27 °FChilly.10 mph69%30.42 "HgN/A
6:30 am27 °FChilly.8 mph69%30.42 "HgN/A
6:00 am27 °FChilly.8 mph69%30.42 "HgN/A
5:30 am27 °FChilly.7 mph69%30.42 "HgN/A
5:00 am25 °FCold.7 mph74%30.42 "HgN/A
4:30 am27 °FChilly.6 mph69%30.42 "HgN/A
4:00 am27 °FChilly.6 mph69%30.42 "HgN/A
3:30 am27 °FChilly.6 mph69%30.42 "HgN/A
3:00 am27 °FChilly.8 mph69%30.42 "HgN/A
2:30 am28 °FChilly.7 mph69%30.45 "HgN/A
2:00 am28 °FChilly.7 mph69%30.45 "HgN/A
1:30 am28 °FChilly.7 mph69%30.45 "HgN/A
1:00 am27 °FChilly.7 mph74%30.45 "HgN/A
12:30 am28 °FChilly.7 mph69%30.45 "HgN/A
12:00 am27 °FChilly.6 mph80%30.45 "HgN/A
11:30 pm
Thu, Jan 19
27 °FChilly.7 mph80%30.45 "HgN/A
11:00 pm28 °FChilly.7 mph74%30.45 "HgN/A
10:30 pm30 °FChilly.8 mph69%30.45 "HgN/A
10:00 pm30 °FChilly.8 mph69%30.45 "HgN/A
9:30 pm30 °FChilly.7 mph69%30.45 "HgN/A
9:00 pm30 °FChilly.8 mph69%30.45 "HgN/A
8:30 pm30 °FChilly.8 mph69%30.45 "HgN/A
8:00 pm30 °FChilly.8 mph75%30.45 "HgN/A
7:30 pm30 °FChilly.9 mph69%30.45 "HgN/A
7:00 pm30 °FChilly.9 mph69%30.45 "HgN/A
6:30 pm30 °FChilly.7 mph69%30.45 "HgN/A
6:00 pm30 °FChilly.8 mph69%30.45 "HgN/A
5:30 pm30 °FChilly.9 mph69%30.45 "HgN/A
5:00 pm30 °FChilly.8 mph69%30.45 "HgN/A
Weather by CustomWeather, © 2017

See weather overviewHow to use our weather pages